闪电 3-31星 (MOLNIYA 3-31)

导读

**MOLNIYA 3-31(闪电3-31)卫星**,是独联体(CIS)继承自苏联航天遗产后发射的闪电-3系列通信卫星,由应用力学设计局研制。1987年1月22日,于普列谢茨克航天发射场41/1工位,由闪电号-M运载火箭成功发射入轨。卫星采用闪电系列标志性的大椭圆轨道,主要承担远距离通信任务,设计寿命约3年,是苏联/俄罗斯冷战时期战略通信卫星组网的重要成员。

Basic Information
目录编号:
17328
目录名称:
MOLNIYA 3-31
国际标识:
1987-008A
轨道中心:
EARTH
卫星名称:
闪电 3-31星
卫星全名:
闪电 3-31星 (MOLNIYA 3-31)
卫星状态:
在轨 (已飞行14432 天)
发射日期:
1987-01-22 UTC
国别 :
俄罗斯(独联体) (CIS)
星等 :
--
Orbit Information
数据来源 国际轨道数据 AOE轨道数据
星历时间 2026-07-27T12:32:11+0800
22小时前
查看轨道信息
2026-07-25T01:00:00+0800
3天前
查看轨道信息
半长轴 26560.154km 26559.951km
偏心率 0.7332704 0.7333785
轨道倾角 61.965° 61.970°
近地点辐角 260.820° 260.786°
升交点赤经 266.278° 266.662°
平近点角 17.665° 26.483°
近地点 706.242km 703.316km
远地点 39657.792km 39660.312km
周期 717.969分钟 717.961分钟
每日圈数 2.005658 2.005681
Detailed Information
平衡模式:
三轴稳定
覆盖范围:
全球
运营商:
俄罗斯国家航天集团
运营商所在国:
俄罗斯
制造商(研发单位):
普里克拉德诺伊·梅哈尼基设计局
制造商所在国:
俄罗斯联邦
使用方式:
暂无
Satellite Introduction
闪电(Molniya (Satellite))系列卫星是苏联/俄罗斯于1965年至2004年间发射的军事和通信卫星。这些卫星使用高度偏心的椭圆轨道,称为Molniya轨道(即闪电轨道),在高纬度地区具有较长的停留时间。该卫星状态未知。
2D Orbit Map
3D Orbit Map
Orbit Altitude Analysis Chart
Orbit Inclination Analysis Chart
Orbit Comprehensive Analysis Chart
View Comprehensive Chart